Location: Newark
(50.0306°N, 2.3272°E)
Time: 17:07:23
(UTC+00:00)

Vanguard 1 Rocket - Pass Details

Date: 20 December 2019
Orbit: 651 x 4226 km, 34.3° (Epoch: 28 January)

Event Time Altitude Azimuth Distance (km) Brightness Sun altitude
Rises 14:05:01 0° 169° (SSE) 8,212 13.0 10.5°
Reaches altitude 10° 14:18:39 10° 141° (SE) 7,423 12.3 9.3°
Maximum altitude 14:24:21 11° 128° (SE) 7,242 12.1 8.8°
Drops below altitude 10° 14:29:51 10° 115° (ESE) 7,183 11.9 8.3°
Sets 14:41:42 0° 88° (E) 7,525 11.7 7.1°
